Weather Roundup
Issued by NWS Springfield, MO

Home | Current Version | Previous Version | Text Only | Print | Product List | Glossary On
Versions: 1 2 3 4 5 6 7 8 9 10 11 12 13 14 15 16 17 18 19 20 21 22 23 24 25 26 27 28 29 30 31 32 33 34 35 36 37 38 39 40 41 42 43 44 45 46 47 48 49 50
000
NZUS99 KSGF 030407
HRRSGF

HOURLY WEATHER
NATIONAL WEATHER SERVICE SPRINGFIELD MO
1000 PM CST FRI DEC 02 2016

......SGF CWA......

CITY           SKY/WX    TMP DP  RH WIND       PRES   REMARKS
SPRINGFIELD    CLOUDY    45  25  45 E9        30.29R
WEST PLAINS    MOCLDY    41  27  57 NE3       30.31R
OSAGE BEACH    MOCLDY    37  25  61 CALM      30.35
BRANSON          N/A     46  32  57 E6        30.27F

......SURROUNDING SGF CWA......

CITY           SKY/WX    TMP DP  RH WIND       PRES   REMARKS
CHANUTE        CLOUDY    44  27  51 E9        30.30R
PARSONS        CLOUDY    46  28  49 VRB6      30.30R
COFFEYVILLE    MOCLDY    45  29  53 NE9       30.29R
GROVE OK       CLOUDY    48  34  57 CALM      30.26R
ROGERS AR      CLOUDY    50  31  48 E7        30.26R
SILOAM SPRINGS CLOUDY    50  30  46 E6        30.24S
HARRISON AR    CLOUDY    46  32  58 E5        30.27R
NEAR YELLVILLE CLOUDY    46  30  53 CALM      30.26R

......KANSAS AND MISSOURI......

CITY           SKY/WX    TMP DP  RH WIND       PRES   REMARKS
KANSAS CTY INT NOT AVBL
DOWNTOWN KC    PTCLDY    32  27  81 CALM      30.34R
COLUMBIA       CLOUDY    37  27  67 E5        30.33R WCI  33
ST JOSEPH      NOT AVBL
ST LOUIS       CLOUDY    36  28  73 CALM      30.34S
SPIRIT OF STL  CLEAR     29  28  96 CALM      30.34S
KIRKSVILLE     CLEAR     28  24  85 NE3       30.33S

......TENNESSEE......

CITY           SKY/WX    TMP DP  RH WIND       PRES   REMARKS
MEMPHIS        CLOUDY    50  36  58 NE3       30.29S
NASHVILLE      PTCLDY    43  29  57 NE8       30.32S

......ARKANSAS.......

CITY           SKY/WX    TMP DP  RH WIND       PRES   REMARKS
FAYETTEVILLE   CLOUDY    42  35  76 CALM      30.24R
FT SMITH       CLOUDY    50  36  58 CALM      30.24R
LITTLE ROCK    CLOUDY    49  40  71 NE3       30.27S

......OKLAHOMA.......

CITY           SKY/WX    TMP DP  RH WIND       PRES   REMARKS
TULSA          NOT AVBL
MCALESTER      CLOUDY    54  34  46 E3        30.20S
OKLAHOMA CITY  LGT RAIN  46  44  93 N7        30.25R

......IOWA............

CITY           SKY/WX    TMP DP  RH WIND       PRES   REMARKS
DES MOINES     CLOUDY    37  32  82 NE3       30.34S
QUAD CITIES    CLOUDY    35  26  69 NW7       30.34S WCI  29

......ILLINOIS........

CITY           SKY/WX    TMP DP  RH WIND       PRES   REMARKS
QUINCY         MOCLDY    36  31  82 NE5       30.33S WCI  32
CHICAGO        CLOUDY    35  24  64 NW8       30.31R WCI  29



USA.gov is the U.S. government's official web portal to all federal, state and local government web resources and services.